Lid_Strength_Index
5 7 6 6 7 6 6 5 5 6 6 6 6 7 7 7 7 7 7 6 6 5
5 5 6 6 6 6 6 6 7 7 7 7 7 8 8 8 8 8 7 7 6 7
5 5 5 6 6 7 7 8 8 8 8 8 8 9 9 9 9 8 9 8 8 8
6 6 6 7 7 7 8 8 8 8 9 9 9 9 10 10 9 9 9 9 9 9
6 7 8 8 8 9 9 8 8 8 9 9 9 10 10 10 10 9 10 9 9 9
7 7 8 8 8 8 8 8 8 8 8 9 9 9 9 9 9 10 10 10 10 10
7 7 8 8 8 8 8 8 8 8 8 8 9 9 9 9 9 10 10 10 10 9
7 7 8 8 8 8 9 9 9 9 9 9 9 9 9 9 8 8 9 9 10 9
8 8 8 9 9 10 10 10 10 10 10 10 9 7 7 7 8 9 9 10 9 9
8 9 9 9 10 10 11 11 11 11 11 10 10 7 7 7 9 10 10 11 11 11
8 9 9 10 10 11 11 11 10 10 10 11 10 8 8 9 11 12 12 12 12 13
8 9 9 10 10 11 11 11 10 10 10 11 10 8 8 10 12 13 13 13 13 14
8 8 9 9 10 11 11 10 11 12 11 10 11 9 8 11 14 14 15 15 14 11
8 8 9 10 11 12 11 11 12 11 11 11 10 11 8 10 15 15 16 16 15 14